Regional Weather Roundup
Issued by NWS

Home | Current Version | Previous Version | Graphics & Text | Print | Product List | Glossary On
Versions: 1 2 3 4 5 6 7 8 9 10 11 12 13 14 15 16 17 18 19 20 21 22 23 24 25 26 27 28 29 30 31 32 33 34 35 36 37 38 39 40 41 42 43 44 45 46 47 48 49 50
000
ASUS43 KBIS 030120
RWRND

NORTH DAKOTA REGIONAL WEATHER ROUNDUP
NATIONAL WEATHER SERVICE BISMARCK ND
700 PM CST MON MAR 02 2015

NOTE: "FAIR" INDICATES FEW OR NO CLOUDS BELOW 12,000 FEET WITH NO
SIGNIFICANT WEATHER AND/OR OBSTRUCTIONS TO VISIBILITY.


NDZ001>003-009>011-017-030200-
NORTHWEST NORTH DAKOTA

CITY           SKY/WX    TMP DP  RH WIND       PRES   REMARKS
WILLISTON      CLOUDY    22  15  75 N22G32    29.83R WCI   6
MINOT          PTCLDY    31  20  63 W8        29.71S
MINOT AFB      MOCLDY    24  22  91 NW7       29.71R WCI  16
$$

NDZ018>021-031>035-040>046-030200-
SOUTHWEST NORTH DAKOTA

CITY           SKY/WX    TMP DP  RH WIND       PRES   REMARKS
BISMARCK       MOCLDY    34  24  67 CALM      29.73S
DICKINSON      PTCLDY    31  14  49 NW13      29.69S
GARRISON         N/A     28  19  69 NW8       29.71R WCI  20
HETTINGER ARPT MOCLDY    31  13  47 W3        29.72R
$$

NDZ004>008-012>016-024-026-027-054-030200-
NORTHEAST NORTH DAKOTA

CITY           SKY/WX    TMP DP  RH WIND       PRES   REMARKS
GRAND FORKS    PTCLDY    26  17  68 S20G26    29.85F WCI  12
GRND FRKS AFB  CLEAR     26  17  71 S20G25    29.82F WCI  12
DEVILS LAKE    CLEAR     27  19  74 S14       29.77S WCI  15
$$

NDZ022-023-025-028>030-036>039-047>053-030200-
SOUTHEAST NORTH DAKOTA

CITY           SKY/WX    TMP DP  RH WIND       PRES   REMARKS
FARGO          CLOUDY    29  17  61 S22G35    29.92F WCI  15
JAMESTOWN      MOCLDY    28  20  71 S18       29.77F WCI  15
$$




USA.gov is the U.S. government's official web portal to all federal, state and local government web resources and services.